QPF
0.04 0.04 0.04 0.04 0.04 0.05 0.05 0.05 0.05 0.05 0.05 0.05 0.05 0.04 0.02 0.01 0.00 0.00 0.00 0.00 0.00 0.00 0.01 0.02 0.02 0.02 0.02 0.01 0.02 0.02 0.02 0.02 0.02 0.02 0.01 0.01 0.01 0.01 0.01 0.01 0.01 0.01 0.01
0.05 0.04 0.04 0.05 0.05 0.05 0.05 0.06 0.05 0.05 0.05 0.04 0.04 0.04 0.03 0.02 0.01 0.00 0.00 0.00 0.00 0.00 0.00 0.01 0.02 0.02 0.03 0.02 0.02 0.03 0.02 0.02 0.01 0.01 0.01 0.01 0.01 0.01 0.01 0.01 0.01 0.01 0.01
0.06 0.05 0.05 0.05 0.05 0.06 0.06 0.07 0.07 0.07 0.05 0.05 0.04 0.04 0.03 0.02 0.01 0.01 0.00 0.00 0.00 0.00 0.00 0.01 0.01 0.02 0.02 0.02 0.02 0.02 0.01 0.01 0.01 0.01 0.01 0.01 0.01 0.01 0.02 0.02 0.02 0.02 0.02
0.05 0.05 0.04 0.05 0.07 0.07 0.07 0.07 0.07 0.07 0.06 0.04 0.03 0.03 0.03 0.03 0.02 0.02 0.01 0.01 0.00 0.00 0.00 0.00 0.01 0.02 0.02 0.02 0.02 0.02 0.01 0.01 0.01 0.01 0.01 0.01 0.01 0.01 0.01 0.02 0.02 0.02 0.03
0.04 0.05 0.04 0.04 0.05 0.06 0.07 0.07 0.07 0.07 0.06 0.05 0.05 0.05 0.05 0.04 0.04 0.03 0.02 0.02 0.01 0.01 0.00 0.00 0.00 0.00 0.01 0.02 0.01 0.02 0.01 0.01 0.01 0.01 0.01 0.01 0.01 0.01 0.01 0.01 0.02 0.02 0.02
0.03 0.05 0.05 0.05 0.05 0.05 0.05 0.05 0.05 0.05 0.05 0.05 0.04 0.04 0.04 0.05 0.05 0.06 0.05 0.04 0.03 0.02 0.01 0.01 0.01 0.01 0.00 0.00 0.01 0.02 0.02 0.02 0.02 0.01 0.01 0.01 0.01 0.01 0.01 0.01 0.01 0.02 0.02
0.03 0.05 0.06 0.06 0.07 0.06 0.06 0.05 0.04 0.04 0.04 0.05 0.04 0.04 0.03 0.03 0.03 0.04 0.06 0.06 0.05 0.04 0.03 0.02 0.02 0.02 0.01 0.01 0.01 0.01 0.02 0.02 0.03 0.03 0.02 0.02 0.01 0.01 0.01 0.02 0.02 0.02 0.02
0.03 0.04 0.06 0.07 0.08 0.09 0.08 0.07 0.05 0.05 0.05 0.05 0.05 0.05 0.04 0.03 0.02 0.02 0.03 0.04 0.04 0.05 0.04 0.04 0.04 0.04 0.04 0.03 0.02 0.01 0.01 0.01 0.02 0.03 0.03 0.03 0.02 0.02 0.02 0.03 0.03 0.03 0.03
0.04 0.05 0.05 0.06 0.06 0.09 0.12 0.09 0.06 0.05 0.05 0.05 0.06 0.07 0.06 0.05 0.03 0.03 0.02 0.03 0.04 0.06 0.07 0.08 0.07 0.07 0.06 0.04 0.03 0.02 0.01 0.00 0.01 0.02 0.03 0.03 0.03 0.03 0.03 0.03 0.04 0.04 0.04
0.03 0.05 0.06 0.07 0.07 0.07 0.09 0.11 0.10 0.08 0.05 0.04 0.04 0.06 0.06 0.06 0.05 0.05 0.04 0.04 0.04 0.04 0.04 0.04 0.04 0.04 0.04 0.04 0.04 0.03 0.02 0.01 0.01 0.01 0.02 0.03 0.04 0.04 0.04 0.04 0.04 0.05 0.05
0.01 0.03 0.05 0.06 0.06 0.06 0.06 0.07 0.07 0.08 0.07 0.06 0.04 0.04 0.05 0.06 0.05 0.04 0.03 0.03 0.03 0.02 0.02 0.02 0.03 0.04 0.04 0.04 0.05 0.05 0.05 0.04 0.03 0.02 0.02 0.03 0.04 0.05 0.06 0.06 0.05 0.05 0.05
0.01 0.02 0.03 0.04 0.04 0.04 0.04 0.05 0.06 0.07 0.07 0.06 0.05 0.04 0.04 0.05 0.05 0.05 0.03 0.03 0.03 0.03 0.03 0.03 0.03 0.02 0.02 0.02 0.03 0.04 0.05 0.05 0.04 0.03 0.02 0.03 0.03 0.04 0.05 0.05 0.05 0.05 0.05
0.01 0.01 0.02 0.02 0.02 0.02 0.03 0.03 0.04 0.04 0.05 0.05 0.04 0.04 0.04 0.04 0.04 0.05 0.05 0.04 0.03 0.03 0.03 0.03 0.04 0.03 0.03 0.02 0.02 0.02 0.03 0.03 0.02 0.02 0.02 0.02 0.02 0.02 0.03 0.04 0.04 0.05 0.05
0.02 0.02 0.01 0.01 0.01 0.01 0.02 0.02 0.03 0.03 0.03 0.03 0.03 0.03 0.03 0.04 0.04 0.05 0.05 0.05 0.04 0.03 0.03 0.02 0.02 0.02 0.02 0.02 0.02 0.02 0.02 0.02 0.01 0.01 0.01 0.01 0.01 0.01 0.02 0.03 0.03 0.04 0.04
0.02 0.02 0.02 0.01 0.01 0.01 0.01 0.02 0.02 0.02 0.02 0.03 0.03 0.04 0.04 0.04 0.05 0.05 0.05 0.05 0.05 0.04 0.03 0.02 0.02 0.01 0.01 0.02 0.01 0.01 0.01 0.01 0.01 0.01 0.01 0.01 0.01 0.01 0.01 0.02 0.03 0.03 0.03
0.02 0.02 0.02 0.02 0.03 0.03 0.02 0.02 0.03 0.02 0.03 0.03 0.04 0.04 0.04 0.04 0.04 0.05 0.05 0.06 0.05 0.04 0.03 0.02 0.01 0.01 0.01 0.01 0.01 0.01 0.01 0.01 0.01 0.01 0.01 0.01 0.01 0.01 0.01 0.02 0.03 0.03 0.03
0.02 0.02 0.02 0.02 0.03 0.04 0.04 0.04 0.04 0.03 0.03 0.03 0.03 0.04 0.04 0.04 0.03 0.03 0.04 0.04 0.04 0.03 0.03 0.02 0.01 0.01 0.01 0.01 0.00 0.00 0.01 0.01 0.01 0.01 0.01 0.01 0.01 0.01 0.02 0.02 0.03 0.04 0.04
0.01 0.01 0.02 0.02 0.02 0.02 0.02 0.02 0.02 0.02 0.02 0.02 0.02 0.03 0.03 0.02 0.02 0.03 0.04 0.04 0.04 0.03 0.02 0.02 0.01 0.01 0.01 0.00 0.00 0.00 0.00 0.00 0.01 0.01 0.01 0.01 0.01 0.01 0.01 0.02 0.03 0.04 0.04
0.01 0.01 0.01 0.02 0.02 0.02 0.02 0.02 0.02 0.01 0.01 0.01 0.02 0.02 0.02 0.02 0.03 0.04 0.03 0.03 0.02 0.02 0.02 0.01 0.01 0.01 0.00 0.00 0.00 0.00 0.00 0.01 0.01 0.01 0.01 0.01 0.01 0.01 0.01 0.02 0.02 0.03 0.03
0.01 0.01 0.02 0.02 0.02 0.02 0.02 0.02 0.03 0.02 0.02 0.01 0.02 0.02 0.03 0.03 0.03 0.03 0.03 0.02 0.02 0.02 0.02 0.02 0.01 0.01 0.01 0.01 0.01 0.01 0.01 0.01 0.01 0.01 0.00 0.00 0.00 0.01 0.01 0.01 0.02 0.03 0.04
0.01 0.01 0.01 0.02 0.02 0.01 0.01 0.01 0.02 0.02 0.02 0.02 0.02 0.02 0.02 0.03 0.02 0.02 0.02 0.02 0.02 0.02 0.02 0.02 0.02 0.02 0.02 0.02 0.02 0.02 0.01 0.01 0.01 0.01 0.01 0.01 0.01 0.01 0.01 0.01 0.02 0.04 0.05
0.01 0.01 0.01 0.01 0.02 0.02 0.02 0.02 0.02 0.02 0.02 0.02 0.02 0.02 0.02 0.02 0.01 0.01 0.01 0.01 0.01 0.01 0.02 0.02 0.02 0.02 0.02 0.02 0.02 0.02 0.01 0.01 0.01 0.01 0.01 0.01 0.01 0.01 0.01 0.01 0.02 0.04 0.05
0.01 0.01 0.01 0.01 0.02 0.02 0.02 0.02 0.02 0.02 0.02 0.02 0.02 0.02 0.01 0.01 0.02 0.01 0.01 0.01 0.01 0.01 0.01 0.02 0.02 0.03 0.02 0.02 0.02 0.02 0.02 0.02 0.01 0.01 0.01 0.01 0.01 0.01 0.01 0.01 0.01 0.03 0.05
0.02 0.01 0.01 0.01 0.01 0.02 0.02 0.02 0.02 0.02 0.01 0.01 0.02 0.02 0.02 0.01 0.01 0.01 0.01 0.01 0.01 0.01 0.01 0.01 0.01 0.01 0.01 0.01 0.01 0.02 0.01 0.01 0.01 0.01 0.01 0.01 0.01 0.01 0.01 0.01 0.02 0.03 0.03
0.02 0.02 0.02 0.02 0.01 0.01 0.02 0.02 0.02 0.02 0.02 0.01 0.01 0.01 0.01 0.01 0.01 0.01 0.01 0.00 0.00 0.00 0.00 0.00 0.00 0.00 0.01 0.01 0.01 0.02 0.01 0.01 0.01 0.01 0.01 0.02 0.01 0.01 0.01 0.02 0.03 0.04 0.05
0.02 0.02 0.02 0.02 0.01 0.01 0.01 0.02 0.02 0.02 0.02 0.02 0.01 0.01 0.02 0.01 0.01 0.01 0.00 0.00 0.00 0.00 0.00 0.00 0.00 0.00 0.00 0.00 0.01 0.02 0.02 0.03 0.02 0.01 0.01 0.01 0.02 0.02 0.02 0.02 0.03 0.05 0.07
MSLP
1016.45 1016.20 1015.93 1015.67 1015.42 1015.22 1015.07 1014.98 1014.93 1014.90 1014.87 1014.82 1014.75 1014.67 1014.60 1014.57 1014.60 1014.70 1014.88 1015.12 1015.38 1015.65 1015.89 1016.08 1016.21 1016.31 1016.38 1016.46 1016.56 1016.70 1016.87 1017.06 1017.26 1017.44 1017.59 1017.69 1017.75 1017.77 1017.78 1017.78 1017.77 1017.77 1017.76
1016.63 1016.32 1015.99 1015.64 1015.33 1015.06 1014.85 1014.71 1014.62 1014.55 1014.49 1014.41 1014.31 1014.20 1014.10 1014.03 1014.03 1014.12 1014.29 1014.53 1014.81 1015.10 1015.36 1015.57 1015.73 1015.84 1015.92 1015.99 1016.09 1016.22 1016.38 1016.58 1016.79 1017.00 1017.17 1017.31 1017.41 1017.47 1017.51 1017.53 1017.54 1017.56 1017.57
1016.84 1016.49 1016.10 1015.70 1015.32 1014.99 1014.73 1014.53 1014.39 1014.28 1014.18 1014.06 1013.92 1013.76 1013.62 1013.51 1013.47 1013.52 1013.66 1013.89 1014.16 1014.46 1014.75 1014.99 1015.18 1015.32 1015.42 1015.50 1015.60 1015.73 1015.89 1016.08 1016.29 1016.50 1016.69 1016.85 1016.98 1017.06 1017.12 1017.17 1017.21 1017.25 1017.28
1017.06 1016.69 1016.27 1015.83 1015.41 1015.03 1014.72 1014.47 1014.27 1014.11 1013.95 1013.78 1013.59 1013.38 1013.18 1013.02 1012.92 1012.91 1013.01 1013.20 1013.46 1013.76 1014.06 1014.33 1014.56 1014.74 1014.88 1014.99 1015.11 1015.24 1015.39 1015.58 1015.77 1015.97 1016.16 1016.32 1016.45 1016.55 1016.63 1016.70 1016.76 1016.83 1016.90
1017.28 1016.91 1016.49 1016.04 1015.60 1015.19 1014.83 1014.53 1014.28 1014.05 1013.84 1013.60 1013.35 1013.08 1012.81 1012.58 1012.41 1012.34 1012.37 1012.51 1012.73 1013.01 1013.32 1013.61 1013.88 1014.11 1014.29 1014.45 1014.59 1014.74 1014.89 1015.06 1015.24 1015.42 1015.59 1015.73 1015.85 1015.96 1016.04 1016.12 1016.20 1016.30 1016.40
1017.48 1017.13 1016.74 1016.31 1015.87 1015.45 1015.06 1014.72 1014.42 1014.13 1013.85 1013.55 1013.23 1012.90 1012.56 1012.26 1012.01 1011.86 1011.82 1011.88 1012.05 1012.29 1012.57 1012.88 1013.17 1013.44 1013.67 1013.88 1014.06 1014.23 1014.39 1014.55 1014.71 1014.85 1014.99 1015.10 1015.20 1015.29 1015.37 1015.45 1015.54 1015.65 1015.78
1017.65 1017.35 1017.01 1016.62 1016.21 1015.80 1015.41 1015.04 1014.69 1014.36 1014.01 1013.66 1013.28 1012.89 1012.49 1012.12 1011.80 1011.56 1011.43 1011.40 1011.49 1011.66 1011.90 1012.19 1012.49 1012.78 1013.05 1013.29 1013.51 1013.71 1013.88 1014.03 1014.17 1014.28 1014.38 1014.46 1014.52 1014.58 1014.64 1014.71 1014.80 1014.92 1015.06
1017.79 1017.56 1017.28 1016.95 1016.60 1016.23 1015.84 1015.47 1015.09 1014.72 1014.34 1013.95 1013.53 1013.10 1012.66 1012.23 1011.84 1011.52 1011.29 1011.16 1011.14 1011.22 1011.39 1011.62 1011.89 1012.18 1012.47 1012.74 1012.98 1013.20 1013.38 1013.53 1013.65 1013.73 1013.79 1013.83 1013.85 1013.87 1013.90 1013.95 1014.02 1014.12 1014.26
1017.89 1017.73 1017.53 1017.28 1017.00 1016.68 1016.33 1015.96 1015.59 1015.21 1014.82 1014.41 1013.98 1013.53 1013.07 1012.61 1012.17 1011.78 1011.45 1011.21 1011.06 1011.02 1011.08 1011.23 1011.44 1011.70 1011.97 1012.25 1012.51 1012.74 1012.92 1013.07 1013.17 1013.23 1013.25 1013.25 1013.23 1013.21 1013.20 1013.20 1013.24 1013.32 1013.43
1017.96 1017.86 1017.74 1017.58 1017.37 1017.11 1016.81 1016.48 1016.13 1015.76 1015.39 1015.00 1014.59 1014.16 1013.71 1013.24 1012.77 1012.32 1011.90 1011.55 1011.28 1011.11 1011.04 1011.07 1011.19 1011.38 1011.62 1011.87 1012.12 1012.35 1012.53 1012.67 1012.76 1012.79 1012.79 1012.75 1012.69 1012.63 1012.57 1012.53 1012.52 1012.55 1012.62
1018.00 1017.96 1017.91 1017.81 1017.68 1017.48 1017.24 1016.95 1016.64 1016.31 1015.97 1015.63 1015.27 1014.88 1014.47 1014.02 1013.55 1013.06 1012.57 1012.12 1011.74 1011.43 1011.23 1011.14 1011.15 1011.26 1011.43 1011.64 1011.86 1012.07 1012.24 1012.36 1012.43 1012.44 1012.41 1012.34 1012.25 1012.15 1012.05 1011.96 1011.91 1011.88 1011.89
1018.01 1018.01 1018.00 1017.97 1017.88 1017.74 1017.55 1017.31 1017.04 1016.77 1016.48 1016.20 1015.91 1015.59 1015.24 1014.84 1014.39 1013.89 1013.37 1012.84 1012.36 1011.94 1011.61 1011.40 1011.30 1011.32 1011.41 1011.56 1011.73 1011.90 1012.04 1012.14 1012.18 1012.17 1012.11 1012.02 1011.90 1011.77 1011.64 1011.52 1011.41 1011.33 1011.28
1017.98 1018.00 1018.03 1018.03 1017.98 1017.88 1017.72 1017.52 1017.29 1017.07 1016.84 1016.63 1016.41 1016.18 1015.90 1015.57 1015.16 1014.68 1014.15 1013.59 1013.04 1012.53 1012.11 1011.80 1011.60 1011.52 1011.53 1011.61 1011.72 1011.84 1011.93 1011.99 1011.99 1011.96 1011.88 1011.76 1011.63 1011.48 1011.33 1011.17 1011.03 1010.90 1010.79
1017.90 1017.95 1017.99 1018.00 1017.97 1017.88 1017.74 1017.56 1017.36 1017.17 1017.00 1016.85 1016.71 1016.55 1016.35 1016.09 1015.75 1015.32 1014.81 1014.25 1013.67 1013.13 1012.64 1012.26 1011.98 1011.82 1011.75 1011.75 1011.79 1011.84 1011.88 1011.88 1011.84 1011.77 1011.66 1011.53 1011.38 1011.23 1011.07 1010.90 1010.73 1010.56 1010.41
1017.79 1017.84 1017.89 1017.90 1017.86 1017.77 1017.63 1017.45 1017.26 1017.09 1016.96 1016.85 1016.76 1016.68 1016.56 1016.37 1016.10 1015.73 1015.27 1014.75 1014.19 1013.64 1013.14 1012.71 1012.39 1012.16 1012.02 1011.95 1011.91 1011.88 1011.84 1011.78 1011.68 1011.56 1011.42 1011.27 1011.12 1010.97 1010.81 1010.64 1010.47 1010.29 1010.10
1017.63 1017.69 1017.74 1017.74 1017.69 1017.58 1017.42 1017.23 1017.04 1016.87 1016.75 1016.67 1016.62 1016.59 1016.53 1016.41 1016.22 1015.92 1015.53 1015.06 1014.55 1014.03 1013.54 1013.11 1012.76 1012.49 1012.29 1012.14 1012.02 1011.91 1011.78 1011.64 1011.47 1011.30 1011.12 1010.95 1010.79 1010.64 1010.50 1010.35 1010.19 1010.00 1009.80
1017.42 1017.51 1017.56 1017.56 1017.49 1017.36 1017.18 1016.97 1016.76 1016.58 1016.45 1016.38 1016.35 1016.34 1016.33 1016.27 1016.13 1015.91 1015.59 1015.20 1014.75 1014.28 1013.83 1013.42 1013.06 1012.76 1012.51 1012.30 1012.09 1011.89 1011.68 1011.44 1011.20 1010.97 1010.74 1010.55 1010.37 1010.23 1010.10 1009.97 1009.83 1009.66 1009.47
1017.18 1017.29 1017.36 1017.36 1017.29 1017.14 1016.94 1016.72 1016.49 1016.29 1016.15 1016.07 1016.04 1016.04 1016.05 1016.03 1015.94 1015.77 1015.52 1015.20 1014.82 1014.42 1014.01 1013.62 1013.27 1012.95 1012.66 1012.38 1012.10 1011.81 1011.51 1011.19 1010.88 1010.57 1010.30 1010.06 1009.88 1009.73 1009.60 1009.49 1009.37 1009.23 1009.05
1016.88 1017.03 1017.12 1017.14 1017.08 1016.93 1016.73 1016.50 1016.26 1016.06 1015.90 1015.81 1015.77 1015.77 1015.77 1015.76 1015.71 1015.58 1015.39 1015.12 1014.80 1014.45 1014.08 1013.72 1013.37 1013.04 1012.71 1012.38 1012.04 1011.68 1011.29 1010.90 1010.51 1010.15 1009.82 1009.54 1009.33 1009.16 1009.03 1008.92 1008.81 1008.68 1008.52
1016.53 1016.72 1016.84 1016.89 1016.85 1016.72 1016.54 1016.32 1016.09 1015.88 1015.72 1015.61 1015.56 1015.54 1015.54 1015.53 1015.48 1015.37 1015.20 1014.98 1014.70 1014.38 1014.05 1013.71 1013.36 1013.02 1012.67 1012.30 1011.90 1011.48 1011.04 1010.59 1010.15 1009.73 1009.35 1009.03 1008.77 1008.57 1008.42 1008.29 1008.17 1008.04 1007.88
1016.09 1016.32 1016.48 1016.56 1016.56 1016.48 1016.33 1016.14 1015.93 1015.74 1015.59 1015.48 1015.41 1015.37 1015.35 1015.32 1015.26 1015.15 1014.99 1014.78 1014.52 1014.22 1013.91 1013.58 1013.24 1012.89 1012.52 1012.13 1011.71 1011.26 1010.78 1010.30 1009.81 1009.36 1008.94 1008.57 1008.26 1008.01 1007.81 1007.64 1007.48 1007.33 1007.16
1015.57 1015.82 1016.02 1016.15 1016.19 1016.16 1016.06 1015.92 1015.76 1015.60 1015.45 1015.35 1015.27 1015.21 1015.16 1015.11 1015.02 1014.89 1014.72 1014.51 1014.25 1013.96 1013.65 1013.33 1012.99 1012.64 1012.27 1011.88 1011.45 1011.00 1010.52 1010.03 1009.54 1009.05 1008.60 1008.19 1007.82 1007.51 1007.24 1007.00 1006.78 1006.58 1006.38
1014.94 1015.22 1015.44 1015.61 1015.71 1015.73 1015.69 1015.61 1015.50 1015.38 1015.27 1015.17 1015.09 1015.01 1014.94 1014.85 1014.73 1014.57 1014.38 1014.15 1013.88 1013.59 1013.29 1012.96 1012.64 1012.29 1011.94 1011.56 1011.15 1010.72 1010.27 1009.79 1009.30 1008.81 1008.34 1007.88 1007.46 1007.07 1006.71 1006.39 1006.10 1005.83 1005.58
1014.22 1014.51 1014.76 1014.96 1015.11 1015.19 1015.22 1015.20 1015.15 1015.07 1014.99 1014.91 1014.82 1014.73 1014.63 1014.51 1014.36 1014.17 1013.96 1013.70 1013.43 1013.13 1012.82 1012.51 1012.19 1011.87 1011.53 1011.18 1010.81 1010.42 1010.00 1009.56 1009.09 1008.61 1008.12 1007.63 1007.14 1006.68 1006.23 1005.81 1005.43 1005.08 1004.77
1013.44 1013.73 1014.00 1014.24 1014.43 1014.56 1014.65 1014.69 1014.69 1014.66 1014.61 1014.54 1014.46 1014.35 1014.23 1014.08 1013.91 1013.70 1013.46 1013.20 1012.91 1012.61 1012.31 1012.00 1011.70 1011.40 1011.09 1010.77 1010.44 1010.09 1009.71 1009.30 1008.86 1008.38 1007.88 1007.36 1006.82 1006.28 1005.74 1005.24 1004.76 1004.33 1003.96
1012.64 1012.94 1013.23 1013.49 1013.72 1013.90 1014.04 1014.13 1014.17 1014.18 1014.15 1014.10 1014.01 1013.91 1013.77 1013.61 1013.42 1013.20 1012.95 1012.68 1012.40 1012.10 1011.80 1011.51 1011.21 1010.92 1010.64 1010.34 1010.04 1009.72 1009.37 1008.99 1008.56 1008.08 1007.57 1007.01 1006.42 1005.82 1005.21 1004.62 1004.07 1003.58 1003.15
Thickness
5684 5685 5687 5687 5688 5688 5688 5688 5688 5688 5687 5686 5685 5684 5684 5683 5681 5680 5678 5674 5672 5671 5670 5669 5667 5666 5664 5662 5661 5659 5658 5656 5655 5654 5652 5651 5650 5649 5648 5647 5646 5645 5645
5677 5678 5679 5680 5681 5682 5682 5682 5683 5682 5681 5680 5680 5679 5679 5678 5677 5675 5674 5671 5668 5666 5664 5663 5662 5661 5659 5658 5656 5654 5653 5651 5650 5649 5647 5646 5645 5644 5643 5642 5641 5640 5639
5669 5670 5672 5673 5674 5675 5675 5676 5676 5675 5675 5674 5674 5673 5672 5672 5671 5670 5668 5667 5664 5661 5659 5658 5656 5655 5654 5652 5650 5649 5647 5646 5644 5643 5642 5640 5639 5638 5637 5637 5636 5635 5634
5661 5662 5664 5666 5667 5667 5668 5669 5669 5668 5668 5667 5667 5667 5666 5665 5664 5664 5662 5661 5659 5657 5655 5652 5651 5649 5648 5646 5645 5643 5641 5640 5638 5637 5636 5635 5633 5632 5632 5631 5630 5629 5628
5653 5655 5657 5658 5658 5659 5660 5661 5662 5661 5661 5660 5660 5660 5660 5659 5658 5657 5656 5655 5653 5651 5650 5647 5645 5643 5641 5640 5638 5637 5635 5634 5632 5631 5630 5629 5628 5627 5626 5625 5624 5623 5622
5645 5647 5649 5650 5651 5652 5653 5653 5654 5653 5653 5652 5652 5652 5652 5652 5652 5651 5650 5648 5646 5645 5643 5641 5639 5637 5634 5633 5631 5630 5628 5627 5626 5624 5623 5622 5621 5620 5620 5619 5618 5617 5616
5638 5639 5640 5642 5643 5644 5646 5646 5646 5645 5644 5643 5643 5644 5645 5645 5645 5644 5643 5642 5640 5638 5636 5634 5632 5630 5629 5626 5624 5622 5621 5620 5619 5618 5616 5616 5615 5614 5613 5613 5612 5611 5609
5630 5631 5632 5633 5635 5636 5637 5638 5638 5637 5636 5635 5635 5635 5636 5637 5637 5636 5635 5634 5633 5631 5629 5627 5625 5623 5622 5620 5618 5615 5614 5613 5612 5611 5610 5609 5608 5607 5607 5606 5605 5604 5603
5621 5623 5624 5625 5627 5628 5629 5630 5630 5630 5629 5628 5628 5629 5628 5631 5630 5629 5627 5626 5625 5624 5622 5620 5618 5616 5614 5613 5612 5610 5607 5606 5605 5604 5604 5603 5602 5601 5600 5599 5598 5597 5595
5613 5614 5615 5617 5618 5619 5621 5622 5622 5622 5622 5621 5619 5620 5621 5621 5618 5620 5619 5618 5616 5615 5614 5612 5611 5609 5607 5606 5604 5603 5601 5599 5598 5597 5596 5596 5595 5594 5593 5593 5591 5589 5588
5605 5607 5608 5609 5610 5611 5613 5614 5614 5614 5614 5614 5613 5612 5611 5610 5609 5610 5611 5610 5608 5607 5606 5605 5604 5602 5600 5599 5597 5596 5594 5592 5591 5590 5589 5589 5588 5587 5586 5585 5584 5582 5581
5598 5599 5600 5601 5602 5603 5605 5606 5606 5606 5606 5606 5606 5605 5604 5603 5602 5602 5602 5602 5601 5600 5597 5596 5595 5594 5593 5591 5590 5588 5586 5585 5583 5583 5581 5581 5580 5579 5578 5577 5575 5574 5572
5590 5591 5592 5594 5595 5597 5598 5598 5599 5599 5599 5599 5598 5597 5597 5596 5595 5594 5593 5592 5591 5590 5589 5588 5587 5585 5584 5582 5582 5579 5578 5577 5575 5574 5574 5573 5572 5570 5569 5568 5567 5566 5564
5583 5584 5585 5586 5588 5589 5590 5591 5591 5591 5591 5591 5590 5589 5587 5587 5586 5586 5585 5583 5582 5582 5582 5581 5579 5577 5575 5573 5572 5570 5570 5569 5568 5566 5565 5564 5563 5562 5560 5559 5559 5557 5555
5575 5576 5577 5579 5580 5581 5582 5583 5583 5583 5583 5582 5582 5581 5580 5579 5577 5577 5576 5575 5574 5575 5577 5575 5571 5569 5566 5565 5563 5562 5562 5561 5559 5558 5557 5556 5555 5554 5552 5551 5550 5548 5546
5567 5568 5570 5571 5572 5573 5574 5574 5575 5575 5574 5573 5573 5572 5571 5570 5569 5568 5567 5566 5566 5565 5566 5566 5563 5560 5558 5556 5555 5554 5553 5552 5551 5550 5549 5548 5547 5546 5544 5543 5541 5540 5538
5559 5561 5562 5563 5565 5566 5566 5566 5567 5566 5566 5565 5564 5564 5563 5561 5561 5559 5558 5557 5556 5555 5555 5556 5553 5551 5548 5548 5547 5546 5545 5545 5545 5543 5541 5539 5538 5537 5536 5535 5533 5531 5529
5551 5553 5554 5555 5556 5557 5557 5558 5558 5558 5558 5557 5556 5555 5553 5552 5551 5550 5549 5548 5547 5546 5545 5546 5544 5541 5540 5539 5538 5538 5538 5537 5536 5535 5533 5531 5530 5528 5526 5525 5523 5521 5520
5543 5544 5545 5546 5548 5548 5549 5550 5550 5550 5549 5548 5547 5545 5544 5543 5542 5541 5541 5540 5538 5537 5536 5536 5536 5534 5532 5530 5530 5530 5529 5529 5528 5527 5525 5523 5521 5519 5517 5515 5513 5512 5511
5535 5536 5537 5538 5539 5540 5540 5540 5541 5541 5540 5539 5538 5537 5537 5536 5534 5533 5532 5531 5530 5529 5528 5528 5528 5526 5524 5522 5520 5520 5521 5520 5519 5518 5516 5515 5513 5510 5508 5507 5505 5504 5503
5528 5528 5529 5529 5530 5531 5532 5532 5532 5532 5531 5531 5530 5529 5528 5526 5525 5524 5523 5522 5520 5520 5519 5519 5519 5518 5516 5514 5511 5510 5509 5510 5510 5508 5507 5506 5504 5503 5501 5499 5497 5496 5495
5521 5521 5521 5522 5522 5523 5523 5523 5523 5523 5523 5522 5521 5520 5519 5517 5515 5514 5513 5511 5510 5511 5510 5510 5509 5508 5507 5504 5501 5499 5498 5498 5501 5499 5495 5497 5494 5493 5492 5491 5489 5488 5488
5515 5515 5515 5516 5516 5516 5515 5515 5515 5516 5515 5514 5513 5512 5511 5509 5507 5506 5505 5503 5501 5500 5499 5499 5499 5498 5496 5493 5491 5490 5487 5485 5486 5486 5484 5488 5486 5485 5484 5483 5481 5480 5480
5509 5509 5509 5509 5510 5510 5508 5508 5508 5507 5507 5506 5505 5504 5503 5502 5500 5498 5497 5496 5495 5493 5491 5489 5488 5487 5484 5482 5480 5478 5476 5475 5476 5476 5472 5475 5477 5476 5476 5475 5474 5473 5473
5504 5503 5503 5503 5503 5503 5501 5501 5500 5500 5500 5499 5497 5496 5495 5494 5492 5490 5489 5488 5487 5485 5482 5480 5478 5476 5474 5471 5469 5467 5466 5465 5469 5470 5465 5463 5466 5466 5468 5468 5468 5466 5466
5498 5497 5496 5496 5496 5496 5495 5493 5493 5494 5493 5492 5490 5488 5486 5485 5483 5482 5481 5480 5479 5478 5475 5473 5470 5468 5466 5463 5460 5457 5455 5454 5455 5458 5458 5453 5454 5453 5458 5461 5459 5459 5459